| time (UTC) | temp F | wind direction | speed MPH | gust MPH | rain 1hr in | rain 24hr in | rain mn in | humidity % | barometer mb |
| 20260902214859 | 57 | 152 | 7.0 | 15.0 | 0.05 | 0.31 | 0.31 | 96 | 1007.5 |
| 20260902213350 | 57 | 119 | 3.0 | 12.0 | 0.05 | 0.29 | 0.29 | 96 | 1007.4 |
| 20260902211849 | 57 | 173 | 7.0 | 18.0 | 0.04 | 0.28 | 0.28 | 95 | 1007.3 |
| 20260902210320 | 57 | 120 | 9.0 | 17.0 | 0.02 | 0.26 | 0.26 | 95 | 1007.2 |
| 20260902204831 | 57 | 241 | 9.0 | 19.0 | 0.02 | 0.26 | 0.26 | 95 | 1007.2 |
| 20260902203319 | 57 | 112 | 6.0 | 23.0 | 0.00 | 0.24 | 0.24 | 95 | 1007.0 |
| 20260902201828 | 57 | 184 | 7.0 | 20.0 | 0.02 | 0.24 | 0.24 | 95 | 1006.9 |
| 20260902200319 | 57 | 154 | 4.0 | 17.0 | 0.04 | 0.24 | 0.24 | 95 | 1006.7 |
| 20260902194828 | 57 | 140 | 3.0 | 18.0 | 0.05 | 0.24 | 0.24 | 95 | 1006.8 |
| 20260902193342 | 56 | 113 | 8.0 | 16.0 | 0.06 | 0.24 | 0.24 | 95 | 1006.7 |
| 20260902191833 | 56 | 130 | 8.0 | 16.0 | 0.06 | 0.22 | 0.22 | 95 | 1006.9 |
| 20260902190323 | 56 | 113 | 7.0 | 15.0 | 0.10 | 0.20 | 0.20 | 95 | 1006.8 |
| 20260902184833 | 56 | 122 | 7.0 | 14.0 | 0.12 | 0.19 | 0.19 | 95 | 1006.9 |
| 20260902183328 | 56 | 121 | 5.0 | 18.0 | 0.12 | 0.18 | 0.18 | 94 | 1007.0 |
| 20260902181821 | 56 | 134 | 9.0 | 18.0 | 0.11 | 0.16 | 0.16 | 94 | 1007.3 |
| 20260902180329 | 56 | 156 | 3.0 | 11.0 | 0.07 | 0.10 | 0.10 | 94 | 1007.3 |
| 20260902174833 | 56 | 131 | 4.0 | 15.0 | 0.07 | 0.07 | 0.07 | 94 | 1007.3 |
| 20260902173321 | 56 | 165 | 3.0 | 11.0 | 0.06 | 0.06 | 0.06 | 94 | 1007.3 |
| 20260902171833 | 56 | 161 | 6.0 | 14.0 | 0.05 | 0.05 | 0.05 | 93 | 1007.7 |
| 20260902170321 | 56 | 165 | 5.0 | 17.0 | 0.03 | 0.03 | 0.03 | 92 | 1007.6 |
| 20260902164817 | 57 | 176 | 3.0 | 13.0 | 0.00 | 0.00 | 0.00 | 91 | 1007.7 |